Regional Weather Roundup
Issued by NWS

Home | Current Version | Previous Version | Graphics & Text | Print | Product List | Glossary On
Versions: 1 2 3 4 5 6 7 8 9 10 11 12 13 14 15 16 17 18 19 20 21 22 23 24 25 26 27 28 29 30 31 32 33 34 35 36 37 38 39 40 41 42 43 44 45 46 47 48 49 50
000
ASUS43 KFSD 220210
RWRSD

WEATHER ROUNDUP FOR SOUTH DAKOTA
NATIONAL WEATHER SERVICE SIOUX FALLS SD
800 PM CST WED FEB 21 2018

NOTE: "FAIR" INDICATES FEW OR NO CLOUDS BELOW 12,000 FEET WITH NO
SIGNIFICANT WEATHER AND/OR OBSTRUCTIONS TO VISIBILITY.


SDZ001>005-009-010-012>017-220300-
NORTHWEST AND NORTH CENTRAL SOUTH DAKOTA

CITY           SKY/WX    TMP DP  RH WIND       PRES   REMARKS
BUFFALO          N/A     -3 -10  72 E5        30.14F WCI -13
FAITH            N/A     -5  -9  83 SE15      30.26F WCI -26
MOBRIDGE       FAIR       5  -5  63 E6        30.37R WCI  -6
$$

SDZ012>016-024>037-041>051-057-063-072>074-220300-
SOUTHWEST AND SOUTH CENTRAL SOUTH DAKOTA

CITY           SKY/WX    TMP DP  RH WIND       PRES   REMARKS
RAPID CTY ARPT FAIR       7  -1  70 CALM      30.19F
PIERRE         FAIR      11   5  77 SE17      30.36F WCI  -6
CUSTER         FAIR      10  -3  55 W8        30.08F WCI  -2
ELLSWORTH AFB  FAIR      10   1  66 E7        30.18S WCI  -1
PHILIP         FAIR       8   3  80 S5        30.29F WCI   0
PINE RIDGE     FAIR      14   6  70 SW5       30.24R WCI   6
SPEARFISH        N/A      5  -2  72 MISG      30.14S
WINNER         FAIR      19   7  59 S16       30.38F WCI   4
$$

SDZ004>011-016>023-039-040-220300-
NORTHEAST SOUTH DAKOTA

CITY           SKY/WX    TMP DP  RH WIND       PRES   REMARKS
ABERDEEN       FAIR      -3  -7  82 SE5       30.50F WCI -13
WATERTOWN      FAIR       8   0  69 S7        30.49S WCI  -3
BROOKINGS      CLOUDY    10   3  73 SE10      30.53F WCI  -4
SISSETON         N/A      5  -4  66 S7        30.53F WCI  -7
$$

SDZ017-020-022-023-036>040-048>070-220300-
SOUTHEAST SOUTH DAKOTA

CITY           SKY/WX    TMP DP  RH WIND       PRES   REMARKS
SIOUX FALLS    CLOUDY    15   5  64 SE6       30.56S WCI   6
HURON          FAIR      11   3  70 SE12      30.49F WCI  -3
CHAMBERLAIN    FAIR      14   6  70 E13       30.43F WCI   0
MITCHELL       CLOUDY    14   4  64 SE15      30.52F WCI  -1
YANKTON        CLOUDY    15   8  73 E5        30.55F WCI   8
$$

ABBREVIATIONS USED IN REMARKS
   TC - TEMPERATURE IN CELSIUS
  WCI - WIND CHILL INDEX
   HX - HEAT INDEX
  VSB - VISIBILITY




USA.gov is the U.S. government's official web portal to all federal, state and local government web resources and services.